ATLAS 5 CENTAUR DEB, 49343

Orbit data source: Space-Track

ATLAS 5 CENTAUR DEB, 49343 is space debris in HEO originally from a launch on Wed, 17 Oct 2018 UTC launched from the Air Force Eastern Test Range (AFETR). Debris objects in space refer to the collection of defunct objects orbiting the Earth. Examples of debris include non-operational satellites, rocket bodies, and fragments generated from explosions, collisions, or faulty payload assembly.

Loading next visibility...
Identifier
49343, 2018-079EU
Orbit
HEO
Country
Flag of USUS
Related business
Flag of USUnited Launch Alliance/Lockheed Martin (US)
Manufacturer
ULA Decatur
Mission
Spacecraft
Bus & Motor
Unknown
Mass
Unknown
Launch date (UTC)
2018-10-17 (8 years ago)
Launch vehicle
Unknown
Launch site
Air Force Eastern Test Range (AFETR)
Object type
Payload
Rocket body
Debris
Shape & HBR
Unknown shape, 1.1 m
Radar Cross Section
Large (>1 m²)

Expand to show TLE details & history
Last TLE update: 2 weeks ago

TLE from 2 weeks ago
0 ATLAS 5 CENTAUR DEB
1 49343U 18079EU  26139.91593439 -.00000085  00000-0  00000-0 0  9996
2 49343  12.9199  62.7962 4578610 259.6700  47.3355  1.74624795 30137
Epoch: 2026-05-19T21:58Z
TLE epoch observation values (Epoch: 2026-05-19T21:58:56.731Z)
Latitude
0.00006°
Longitude
-144.63229°
Altitude
18,720.868 km
Speed
4.252 km/s
True Right ascension
04h 10m 44s
True Declination
0° 00' 00"
Sunlit
Object was in daylight at epoch
Visualization orbit readout
Latitude
Unknown
Longitude
Unknown
Altitude
Unknown
Speed
Unknown
Apparent Right ascension
Unknown
Apparent Declination
Unknown
Sunlit
N/A
Visualization observer readout
Local Sidereal Time
22:42:25
Azimuth
Unknown
Elevation
Unknown
Doppler factor
Unknown
Orbital elements
Apogee altitude
36,091.377 km
Perigee altitude
9,415.125 km
Semi-major axis
29,131.388 km
Eccentricity
0.45786
Inclination
12.9199°
RAAN
62.7962°
Arg. of periapsis
259.67°
True anomaly
100.32687°
Mean anomaly
47.3355°
Eccentric anomaly
72.33153°
Mean motion
0.43652 °/min
Orbital period
824.71 mins
BSTAR
0
Loading maneuver chart data...
Computing Atmospheric mass density...

Documentation

Showing up to 5 results
|